STARLINK-2052 (47662 NORAD) Tracking and Keplerian Element Data

This shows tracking and keplerian element data for the satellite.

Feedback or suggestion? Click here.




ElementValue
Catalog47662
NameSTARLINK-2052
Epoch Orbit235
Epoch Day57.16667824
Epoch Year2021
RAAN52.0319
Inclination53.0493
Eccentricity0.0007494
Argument of Perigee274.2128
Mean Anonmoly341.3983
Mean Motion15.85941787
Decay Rate0.00061262
L11 47662U 21012AU 21057.16667824 .00061262 00000-0 24501-3 0 9998
L22 47662 53.0493 52.0319 0007494 274.2128 341.3983 15.85941787 2357

Live tracking and technical data element details for STARLINK-2052 (NORAD 47662). STARLINK-2052 can be tracked NOW for your location showing map with azimuth and elevation plus other details from your city location.

Track the satellite on the map from your city or location and see movement details for azimuth, elevation, latitude, longitude, range, height, and movement on the map or in text.







IsCatalogInMostPopularTable: catalog: 47662, numindb: 1
Update: records affected: 1



GetName: 47662 STARLINK-2052

Hit Count: updated at: Fri, 26 Feb 2021 10:17:59 GMT